Simultaneous Nadir Overpasses (SNOs) Predictions

Prediction of SNOs between LANDSAT-8 and TERRA Satellite Orbit:

Table of predicted SNOs for the next 14.0 days since TLE Epoch: 5/27/2023
Index Date (LANDSAT-8) Time (LANDSAT-8) Lat,Lon (LANDSAT-8) SZA (LANDSAT-8 ) Date (TERRA) Time (TERRA) Lat,Lon (TERRA) SZA (TERRA ) Distance(km) Time Diff (sec)
1 06/07/2023 03:39:53 -80.78, 35.59 112.27 06/07/2023 03:41:02 -80.77, 35.71 112.21 2.31 69
2 06/07/2023 04:29:19 80.76,-156.57 67.76 06/07/2023 04:30:24 80.76,-156.47 67.82 1.80 65
3 06/07/2023 05:18:44 -80.72, 11.56 112.16 06/07/2023 05:19:45 -80.73, 11.50 112.13 1.27 61
4 06/07/2023 06:08:09 80.68, 179.74 67.93 06/07/2023 06:09:06 80.68, 179.64 67.95 1.81 57
5 06/07/2023 06:57:36 -80.69, -12.81 112.11 06/07/2023 06:58:28 -80.68, -12.72 112.06 1.91 52
6 06/07/2023 07:47:02 80.68, 155.03 67.92 06/07/2023 07:47:50 80.67, 155.10 67.97 1.37 48
7 06/07/2023 08:36:26 -80.60, -36.53 111.95 06/07/2023 08:37:10 -80.61, -36.62 111.93 1.67 44
8 06/07/2023 09:25:52 80.59, 131.31 68.09 06/07/2023 09:26:32 80.59, 131.20 68.10 2.24 40
9 06/07/2023 10:15:19 -80.60, -61.24 111.95 06/07/2023 10:15:54 -80.60, -61.16 111.92 1.51 35
10 06/07/2023 11:04:44 80.55, 106.93 68.14 06/07/2023 11:05:15 80.55, 106.98 68.17 0.95 31
11 06/07/2023 11:54:09 -80.51, -84.97 111.79 06/07/2023 11:54:36 -80.52, -85.07 111.79 2.07 27
12 06/07/2023 12:43:34 80.46, 83.19 68.30 06/07/2023 12:43:57 80.47, 83.06 68.30 2.66 23
13 06/07/2023 13:33:01 -80.48,-109.36 111.74 06/07/2023 13:33:19 -80.47,-109.31 111.72 1.11 18
14 06/07/2023 14:22:27 80.46, 58.48 68.30 06/07/2023 14:22:41 80.46, 58.51 68.31 0.53 14
15 06/07/2023 15:11:51 -80.38,-133.12 111.57 06/07/2023 15:12:01 -80.40,-133.24 111.59 2.46 10
16 06/07/2023 16:01:16 80.33, 35.03 68.52 06/07/2023 16:01:22 80.35, 34.89 68.50 3.08 6
17 06/07/2023 16:50:43 -80.35,-157.52 111.52 06/07/2023 16:50:44 -80.35,-157.48 111.52 0.72 1
18 06/07/2023 17:40:08 80.30, 10.63 68.57 06/07/2023 17:40:05 80.30, 10.64 68.57 0.11 3
19 06/07/2023 18:29:33 -80.25, 178.69 111.36 06/07/2023 18:29:26 -80.27, 178.56 111.39 2.86 7
20 06/07/2023 19:19:01 80.30, -14.07 68.57 06/07/2023 19:18:49 80.28, -13.92 68.59 3.28 12
21 06/07/2023 20:08:24 -80.19, 154.59 111.25 06/07/2023 20:08:08 -80.18, 154.60 111.26 0.32 16
22 06/07/2023 20:57:50 80.16, -37.57 68.79 06/07/2023 20:57:30 80.17, -37.58 68.77 0.32 20
23 06/07/2023 21:47:14 -80.08, 130.77 111.09 06/07/2023 21:46:50 -80.10, 130.63 111.13 3.26 24
24 06/07/2023 22:36:42 80.13, -61.98 68.84 06/07/2023 22:36:13 80.12, -61.85 68.85 2.87 29
25 06/07/2023 23:26:05 -80.01, 106.65 110.98 06/07/2023 23:25:32 -80.01, 106.64 111.00 0.09 33
26 06/08/2023 00:15:30 79.96, -85.22 69.12 06/08/2023 00:14:53 79.96, -85.26 69.08 0.73 37
27 06/08/2023 01:04:57 -79.98, 82.23 110.93 06/08/2023 01:04:15 -79.96, 82.36 110.93 3.11 42
28 06/08/2023 01:54:23 79.95,-109.93 69.11 06/08/2023 01:53:37 79.94,-109.82 69.10 2.46 46
29 06/08/2023 02:43:46 -79.84, 58.65 110.71 06/08/2023 02:42:56 -79.84, 58.63 110.75 0.47 50
30 06/08/2023 03:33:11 79.77,-133.23 69.39 06/08/2023 03:32:17 79.78,-133.28 69.34 1.13 54
31 06/08/2023 04:22:37 -79.76, 34.50 110.60 06/08/2023 04:21:38 -79.75, 34.61 110.62 2.71 59
32 06/08/2023 05:12:03 79.74,-157.66 69.44 06/08/2023 05:11:00 79.73,-157.57 69.41 2.06 63
33 06/08/2023 06:01:26 -79.61, 10.88 110.38 06/08/2023 06:00:19 -79.62, 10.84 110.44 0.86 67



Historial Predications of SNOs between LANDSAT-8 and TERRA
